Location: Alafon
(8.4500°N, 4.2333°E)
Time: 01:31:43
(UTC+00:00)

Cosmos 1626 - Pass Details

Date: 05 July 2020
Orbit: 491 x 495 km, 82.5° (Epoch: 06 August)

Event Time Altitude Azimuth Distance (km) Brightness Sun altitude
Rises 18:47:34 0° 178° (S) 2,569 5.5 -10.3°
Reaches altitude 10° 18:49:41 10° 175° (S) 1,686 4.5 -10.8°
Maximum altitude 18:53:20 62° 94° (E) 558 2.1 -11.6°
Drops below altitude 10° 18:56:58 10° 13° (NNE) 1,682 5.0 -12.4°
Sets 18:59:05 0° 9° (N) 2,562 6.0 -12.9°
